JA3VQW-13 Weather Reports


time (UTC)temp
C
wind
direction
speed
KPH
gust
KPH
rain 1hr
cm
rain 24hr
cm
rain mn
cm
humidity
%
barometer
mb
20260906201631 23 225 0.0 0.0 0.00 0.00 0.00 89 994.0
20260906194631 23 225 0.0 0.0 0.00 0.00 0.00 87 994.0
20260906191632 23 225 0.0 0.0 0.00 0.00 0.00 84 994.0
20260906184631 23 225 0.0 0.0 0.00 0.00 0.00 80 995.0
20260906181631 23 225 0.0 0.0 0.00 0.00 0.00 81 994.0
20260906180055 23 225 0.0 0.0 0.00 0.00 0.00 83 994.0
20260906174631 23 225 0.0 0.0 0.00 0.00 0.00 84 995.0
20260906171630 23 225 0.0 3.2 0.00 0.00 0.00 85 995.0
20260906164630 23 225 0.0 0.0 0.00 0.00 0.00 80 995.0
20260906161630 23 315 0.0 0.0 0.00 0.00 0.00 78 995.0
20260906154630 23 315 0.0 0.0 0.00 0.00 0.00 71 996.0
20260906151630 24 315 0.0 0.0 0.00 0.00 0.00 68 996.0
20260906144630 24 315 0.0 0.0 0.00 0.00 0.00 64 996.0
20260906141631 26 315 0.0 0.0 0.00 0.00 0.00 51 996.0
20260906141554 26 315 0.0 0.0 0.00 0.00 0.00 50 996.0
20260906140053 26 315 0.0 0.0 0.00 0.00 0.00 47 996.0
20260906134630 26 315 0.0 0.0 0.00 0.00 0.00 47 996.0
20260906134555 26 315 0.0 0.0 0.00 0.00 0.00 47 996.0
20260906131631 26 315 0.0 0.0 0.00 0.00 0.00 48 996.0
20260906131554 26 315 0.0 0.0 0.00 0.00 0.00 48 996.0
20260906124630 26 315 0.0 0.0 0.00 0.00 0.00 47 996.0
20260906121630 26 315 0.0 0.0 0.00 0.00 0.00 46 996.0
20260906120054 26 315 0.0 0.0 0.00 0.00 0.00 46 996.0
20260906114631 26 315 0.0 0.0 0.00 0.00 0.00 46 996.0
20260906111631 26 315 0.0 0.0 0.00 0.00 0.00 48 996.0
20260906111553 26 315 0.0 0.0 0.00 0.00 0.00 48 996.0
20260906104630 25 315 0.0 0.0 0.00 0.00 0.00 49 997.0
20260906104553 25 315 0.0 0.0 0.00 0.00 0.00 49 997.0
20260906103053 26 315 0.0 0.0 0.00 0.00 0.00 50 997.0
20260906101630 26 315 0.0 0.0 0.00 0.00 0.00 46 996.0
20260906094630 26 315 0.0 0.0 0.00 0.00 0.00 46 996.0
20260906091631 26 0 0.0 3.2 0.00 0.00 0.00 45 996.0
20260906084633 26 0 0.0 3.2 0.00 0.00 0.00 45 996.0
20260906084556 26 0 0.0 3.2 0.00 0.00 0.00 45 996.0
20260906083056 27 0 0.0 3.2 0.00 0.00 0.00 44 997.0
20260906081633 27 0 0.0 3.2 0.00 0.00 0.00 44 996.0
20260906074631 27 0 0.0 4.8 0.00 0.00 0.00 43 997.0
20260906074556 27 0 0.0 0.0 0.00 0.00 0.00 42 997.0
20260906071633 27 0 0.0 3.2 0.00 0.00 0.00 42 996.0
20260906070057 27 0 0.0 0.0 0.00 0.00 0.00 41 996.0
20260906064633 27 0 0.0 3.2 0.00 0.00 0.00 41 996.0
20260906064555 27 0 0.0 3.2 0.00 0.00 0.00 41 996.0
20260906063056 27 0 0.0 4.8 0.00 0.00 0.00 40 997.0
20260906061632 27 0 0.0 3.2 0.00 0.00 0.00 40 997.0
20260906061555 27 0 0.0 3.2 0.00 0.00 0.00 40 997.0
20260906054632 27 0 0.0 0.0 0.00 0.00 0.00 39 997.0
20260906051632 27 0 0.0 4.8 0.00 0.00 0.00 39 997.0
20260906051557 27 0 0.0 8.0 0.00 0.00 0.00 39 997.0
20260906044631 28 0 0.0 4.8 0.00 0.00 0.00 36 997.0
20260906043056 28 0 0.0 3.2 0.00 0.00 0.00 34 997.0
20260906041631 28 0 0.0 4.8 0.00 0.00 0.00 34 998.0
20260906041556 28 0 0.0 4.8 0.00 0.00 0.00 34 998.0
20260906034632 28 0 0.0 0.0 0.00 0.00 0.00 32 998.0
20260906031631 29 0 0.0 0.0 0.00 0.00 0.00 31 998.0
20260906024632 29 270 0.0 0.0 0.00 0.00 0.00 31 998.0
20260906021632 30 270 0.0 0.0 0.00 0.00 0.00 31 998.0
20260906014632 29 180 0.0 0.0 0.00 0.00 0.00 32 999.0
20260906011631 29 180 0.0 0.0 0.00 0.00 0.00 32 999.0
20260906004631 28 135 0.0 3.2 0.00 0.00 0.00 36 999.0
20260906004556 28 135 0.0 3.2 0.00 0.00 0.00 36 999.0
20260906001631 27 315 0.0 0.0 0.00 0.00 0.00 39 1000.0
20260906001558 27 315 0.0 0.0 0.00 0.00 0.00 39 1000.0
20260905234632 27 315 0.0 0.0 0.00 0.00 0.00 40 1000.0
20260905234555 27 315 0.0 0.0 0.00 0.00 0.00 41 1000.0
20260905233055 27 225 0.0 0.0 0.00 0.00 0.00 42 1000.0
20260905231631 26 225 0.0 0.0 0.00 0.00 0.00 44 1000.0
20260905231556 26 225 0.0 0.0 0.00 0.00 0.00 44 1000.0
20260905224631 25 225 0.0 0.0 0.00 0.00 0.00 47 1000.0
20260905223056 25 225 0.0 0.0 0.00 0.00 0.00 46 1000.0
20260905221632 25 225 0.0 0.0 0.00 0.00 0.00 46 1000.0
20260905221555 25 225 0.0 0.0 0.00 0.00 0.00 46 1000.0
20260905220056 25 225 0.0 0.0 0.00 0.00 0.00 46 1000.0
20260905214631 25 225 0.0 0.0 0.00 0.00 0.00 45 1000.0
20260905211630 25 225 0.0 0.0 0.00 0.00 0.00 45 1000.0
20260905211555 25 225 0.0 0.0 0.00 0.00 0.00 45 1000.0
20260905210054 25 225 0.0 0.0 0.00 0.00 0.00 44 999.0
20260905204631 25 225 0.0 0.0 0.00 0.00 0.00 43 1000.0
20260905204556 25 225 0.0 0.0 0.00 0.00 0.00 43 1000.0